Dothan, AL

6:45 PM CDT on July 24, 2017 (GMT -0500)
Dothan Regional

Weather History for KDHN - January, 2013

Change the Weather History Date:

Thursday, January 10, 2013

  Actual Average Record
Temperature  
Mean Temperature 71 °F 48 °F  
Max Temperature 78 °F 60 °F 80 °F (1949)
Min Temperature 64 °F 37 °F -47 °F (2001)
Degree Days  
Heating Degree Days 0 17  
Month to date heating degree days 119 166  
Since 1 July heating degree days 758 879  
Cooling Degree Days 4    
Growing Degree Days 20 (Base 50)    
Moisture  
Dew Point 63 °F    
Average Humidity 89    
Maximum Humidity 100    
Minimum Humidity 64    
Precipitation  
Precipitation T in 0.12 in 0.39 in (1967)
Month to date precipitation 0.10 1.41  
Year to date precipitation 0.10 1.41  
Sea Level Pressure  
Sea Level Pressure 30.30 in    
Wind  
Wind Speed 7 mph (ESE)    
Max Wind Speed 12 mph    
Max Gust Speed -    
Visibility 7 miles    
Events Rain    
T = Trace of Precipitation, MM = Missing Value Source: NWS Daily Summary

Daily Weather History Graph

Daily Weather History Graph

Search for Another Location

Airport or City:

Trip Planner

Search our weather history database for the weather conditions in past years. The results will help you decide how hot, cold, wet, or windy it might be!

Date:

Astronomy

Jan. 10, 2013 Rise Set
Actual Time 6:41 AM CST 4:57 PM CST
Civil Twilight 6:15 AM CST 5:23 PM CST
Nautical Twilight 5:45 AM CST 5:53 PM CST
Astronomical Twilight 5:15 AM CST 6:23 PM CST
Moon 5:21 AM CST (1/10) 4:03 PM CST (1/10)
Length of Visible Light 11h 08m
Length of Day
10h 15m
Waning Crescent, 2% of the Moon is Illuminated
Jan 10
Waning Crescent
Jan 11
New
Jan 18
First Quarter
Jan 26
Full
Feb 3
Last Quarter

Hourly Weather History & Observations

Time (CST) Temp. Dew Point Humidity Pressure Visibility Wind Dir Wind Speed Gust Speed Precip Events Conditions
12:53 AM 64.0 °F 62.1 °F 93% 30.35 in 8.0 mi ESE 5.8 mph - N/A   Overcast
1:53 AM 64.0 °F 62.1 °F 93% 30.35 in 7.0 mi ESE 5.8 mph - N/A   Overcast
2:41 AM 64.4 °F 62.6 °F 94% 30.35 in 3.0 mi East 8.1 mph - N/A   Overcast
2:49 AM 64.4 °F 62.6 °F 94% 30.35 in 1.8 mi East 8.1 mph - N/A   Overcast
3:53 AM 64.0 °F 64.0 °F 100% 30.32 in 0.8 mi ESE 6.9 mph - N/A   Mist
4:23 AM 64.4 °F 64.4 °F 100% 30.32 in 1.0 mi ESE 6.9 mph - N/A   Mist
4:53 AM 64.9 °F 64.9 °F 100% 30.32 in 1.8 mi ESE 4.6 mph - N/A   Overcast
5:00 AM 64.4 °F 64.4 °F 100% 30.32 in 2.5 mi East 3.5 mph - N/A   Overcast
5:40 AM 64.4 °F 64.4 °F 100% 30.32 in 3.0 mi ESE 4.6 mph - N/A   Overcast
5:53 AM 64.9 °F 64.9 °F 100% 30.32 in 4.0 mi ESE 6.9 mph - N/A   Overcast
6:08 AM 64.4 °F 64.4 °F 100% 30.32 in 4.0 mi ESE 8.1 mph - N/A   Overcast
6:18 AM 64.4 °F 64.4 °F 100% 30.32 in 4.0 mi ESE 4.6 mph - N/A   Overcast
6:27 AM 64.4 °F 64.4 °F 100% 30.32 in 4.0 mi East 5.8 mph - N/A   Overcast
6:53 AM 66.0 °F 64.9 °F 96% 30.31 in 5.0 mi East 6.9 mph - N/A   Overcast
7:17 AM 66.2 °F 64.4 °F 94% 30.32 in 4.0 mi East 5.8 mph - N/A   Overcast
7:53 AM 66.0 °F 64.9 °F 96% 30.32 in 5.0 mi ESE 6.9 mph - N/A   Overcast
8:53 AM 66.9 °F 64.9 °F 93% 30.34 in 5.0 mi ESE 6.9 mph - N/A   Overcast
9:53 AM 68.0 °F 64.9 °F 90% 30.33 in 7.0 mi ESE 8.1 mph - N/A   Overcast
10:53 AM 71.1 °F 64.9 °F 81% 30.32 in 10.0 mi ESE 6.9 mph - N/A   Overcast
11:48 AM 73.4 °F 62.6 °F 69% 30.30 in 10.0 mi SSE 11.5 mph - N/A   Overcast
11:53 AM 73.9 °F 62.1 °F 66% 30.29 in 10.0 mi SE 10.4 mph - N/A   Overcast
12:53 PM 75.0 °F 63.0 °F 66% 30.27 in 10.0 mi SE 9.2 mph - N/A   Mostly Cloudy
2:53 PM 73.9 °F 64.0 °F 71% 30.25 in 10.0 mi ESE 6.9 mph - 0.00 in Rain Light Rain
3:53 PM 75.0 °F 62.1 °F 64% 30.25 in 10.0 mi SE 10.4 mph - 0.00 in   Clear
4:53 PM 72.0 °F 61.0 °F 68% 30.25 in 10.0 mi SE 8.1 mph - N/A   Clear
5:53 PM 69.1 °F 63.0 °F 81% 30.26 in 10.0 mi East 5.8 mph - N/A   Clear
6:53 PM 66.0 °F 63.0 °F 90% 30.26 in 10.0 mi ESE 3.5 mph - N/A   Clear
7:53 PM 66.0 °F 63.0 °F 90% 30.26 in 10.0 mi East 5.8 mph - N/A   Clear
8:53 PM 64.9 °F 63.0 °F 93% 30.26 in 10.0 mi ESE 5.8 mph - N/A   Clear
9:53 PM 64.0 °F 62.1 °F 93% 30.26 in 10.0 mi SE 5.8 mph - N/A   Overcast
10:53 PM 64.0 °F 61.0 °F 90% 30.26 in 10.0 mi SE 8.1 mph - N/A   Overcast
11:53 PM 64.0 °F 61.0 °F 90% 30.25 in 10.0 mi SE 8.1 mph - N/A   Overcast